This demonstration page uses our WeatherBlox Daily Observations layout. Learn more.

Left ArrowRight Arrow

47.50024, -111.30081

Hourly Observations for January 2, 2018

Temp ( °F °C ) Dew Point ( °F °C ) Humidity (%) Winds ( mph kmh ) Pressure ( in mb ) Visibility ( mi km ) Precip ( " mm )
12:53 am 00:53 Clear 13 -10.6 3 -16.1 64 64 SSW 18 30 30.57 1035 10 16 0.00 0.00
1:53 am 01:53 Clear 18 -7.8 8 -13.3 65 65 SSW 22 35 30.56 1035 10 16 0.00 0.00
2:53 am 02:53 Clear 19 -7.2 9 -12.8 65 65 SSW 23 37 30.56 1035 10 16 0.00 0.00
3:53 am 03:53 Clear 21 -6.1 11 -11.7 65 65 SSW 24 39 30.55 1034 10 16 0.00 0.00
4:53 am 04:53 Clear 22 -5.6 11 -11.7 63 63 SSW 24 39 30.54 1034 10 16 0.00 0.00
5:53 am 05:53 Clear 24 -4.4 14 -10 65 65 SW 28 44 30.55 1035 8 13 0.00 0.00
6:53 am 06:53 Clear 23 -5 11 -11.7 60 60 SSW 22 35 30.56 1035 10 16 0.00 0.00
7:53 am 07:53 Clear 23 -5 12 -11.1 63 63 SSW 22 35 30.55 1035 10 16 0.00 0.00
8:53 am 08:53 Sunny 23 -5 12 -11.1 63 63 SSW 21 33 30.56 1035 10 16 0.00 0.00
9:53 am 09:53 Sunny 25 -3.9 13 -10.6 60 60 SSW 22 35 30.57 1035 10 16 0.00 0.00
10:53 am 10:53 Sunny 26 -3.3 15 -9.4 63 63 SSW 23 37 30.58 1035 10 16 0.00 0.00
11:53 am 11:53 Sunny 28 -2.2 15 -9.4 58 58 SSW 21 33 30.57 1035 10 16 0.00 0.00
12:53 pm 12:53 Sunny 28 -2.2 17 -8.3 63 63 SSW 15 24 30.54 1034 10 16 0.00 0.00
1:53 pm 13:53 Sunny 31 -0.6 18 -7.8 59 59 SSW 23 37 30.52 1033 10 16 0.00 0.00
2:53 pm 14:53 Sunny 31 -0.6 18 -7.8 59 59 SSW 24 39 30.51 1033 10 16 0.00 0.00
3:53 pm 15:53 Sunny 27 -2.8 16 -8.9 63 63 SSW 18 30 30.51 1033 10 16 0.00 0.00
4:53 pm 16:53 Clear 28 -2.2 16 -8.9 60 60 SSW 17 28 30.50 1033 10 16 0.00 0.00
5:53 pm 17:53 Clear 27 -2.8 15 -9.4 61 61 SSW 15 24 30.50 1033 10 16 0.00 0.00
6:53 pm 18:53 Clear 26 -3.3 14 -10 60 60 SSW 15 24 30.50 1033 10 16 0.00 0.00
7:53 pm 19:53 Clear 26 -3.3 14 -10 60 60 SSW 16 26 30.48 1032 10 16 0.00 0.00
8:53 pm 20:53 Clear 27 -2.8 16 -8.9 63 63 SW 18 30 30.46 1032 10 16 0.00 0.00
9:53 pm 21:53 Clear 27 -2.8 17 -8.3 66 66 SSW 18 30 30.45 1031 10 16 0.00 0.00
10:53 pm 22:53 Clear 28 -2.2 17 -8.3 63 63 SW 18 30 30.42 1030 10 16 0.00 0.00
11:53 pm 23:53 Clear 28 -2.2 17 -8.3 63 63 SSW 21 33 30.39 1029 10 16 0.00 0.00

Powered by AerisWeather